星链-11249 (STARLINK-11249)

导读 | 豆包AI

STARLINK-11249是美国SpaceX星链星座中的一颗卫星,于2024年8月28日发射入轨,属于星链网络扩容任务的组成部分。星链星座旨在构建全球覆盖的低轨卫星互联网,为偏远地区、海上及航空场景提供宽带接入服务,该卫星的入轨进一步扩充了星链网络的服务容量与覆盖能力。

基本信息
目录编号:
60728
目录名称:
STARLINK-11249
国际标识:
2024-152J
轨道中心:
EARTH
卫星名称:
星链-11249 (STARLINK-11249)
卫星全名:
星链-11249 (STARLINK-11249)
卫星状态:
在轨 (已飞行564 天)
发射日期:
2024-08-28 UTC
国别 :
美国 (US)
星等 :
--
轨道信息
数据来源 国际轨道数据
星历时间: 2026-03-15T14:31:18+0800
8小时前
查看轨道信息
半长轴: 6738.004km
偏心率: 0.0001416
轨道倾角: 53.158°
近地点辐角 62.454°
升交点赤经 88.602°
平近点角 297.662°
近地点: 358.912km
远地点: 360.822km
周期: 91.740分钟
每日圈数: 15.696612
详细信息
卫星平台:
Starlink v2.0 mini
运营商:
太空探索技术公司
运营商所在国:
美国
制造商(研发单位):
太空探索技术公司
制造商所在国:
美国
使用方式:
暂无
卫星简介
星链(Starlink)计划是由太空探索技术公司(SpaceX)提出的一个巨型低轨卫星互联网星座项目,计划在2019年至2024年间在太空搭建由约1.2万颗卫星组成的“星链”网络,其中1584颗将部署在地球上空550千米处的近地轨道,并从2020年开始工作。该卫星仍在工作。
2D轨道图
3D轨道图
轨道高度分析图
轨道倾角分析图
轨道综合分析图
查看轨道综合分析图